Regional Weather Roundup
Issued by NWS Cleveland, OH

Home | Current Version | Previous Version | Text Only | Print | Product List | Glossary Off
Versions: 1 2 3 4 5 6 7 8 9 10 11 12 13 14 15 16 17 18 19 20 21 22 23 24 25 26 27 28 29 30 31 32 33 34 35 36 37 38 39 40 41 42 43 44 45 46 47 48 49 50

000
ASUS41 KCLE 072302
RWRCLE
OHIO REGIONAL WEATHER ROUNDUP
NATIONAL WEATHER SERVICE CLEVELAND, OH
700 PM EDT TUE JUL 07 2015

NOTE: "FAIR" INDICATES FEW OR NO CLOUDS BELOW 12,000 FEET WITH NO
SIGNIFICANT WEATHER AND/OR OBSTRUCTIONS TO VISIBILITY.

OHZ001>008-015>018-024>027-034-035-043-044-080000-
   NORTHWEST OHIO

CITY           SKY/WX    TMP DP  RH WIND       PRES   REMARKS
DEFIANCE       CLOUDY    69  62  78 N13       29.95R
FINDLAY        CLOUDY    70  67  90 N10G21    29.92R
TOLEDO EXPRESS CLOUDY    67  62  84 N13       29.93S
TOLEDO EXEC    CLOUDY    68  63  84 N10       29.94R
LIMA           LGT RAIN  70  68  93 NW10      29.94R FOG
$$

OHZ009>014-019>023-028>033-038-089-080000-
   NORTHEAST OHIO

CITY           SKY/WX    TMP DP  RH WIND       PRES   REMARKS
CLE-HOPKINS    LGT RAIN  72  70  93 SW6       29.94R
CLE-LAKEFRONT  CLOUDY    74  70  87 SW9       29.91R
CUY CO. ARPT   CLOUDY    73  72  94 SW8       29.93R
LORAIN-ELYRIA  CLOUDY    72  32  23 SW7       29.93R
ASHTABULA      LGT RAIN  72  70  93 W6        29.92S
AKRON-CANTON   TSTM      71  67  87 SW12      29.97R VSB 1
WOOSTER        LGT RAIN  70  69  97 SW3       29.95S
MANSFIELD      LGT RAIN  71  70  96 S6        29.95S
YOUNGSTOWN     TSTM      70  68  93 SW6G18    29.94R FOG
$$

OHZ042-051>053-060>062-070>072-077>081-080000-
  SOUTHWEST OHIO

CITY           SKY/WX    TMP DP  RH WIND       PRES   REMARKS
CINC-COVINGTON LGT RAIN  74  71  91 W10       29.97S FOG
CINC-LUNKEN    LGT RAIN  75  72  90 SW8       29.96S
HAMILTON       RAIN      75  72  90 SW9       29.96R FOG
DAYTON         LGT RAIN  73  70  90 SW7       29.96S FOG
WRIGHT-PAT AFB NOT AVBL
DAYTON GENERAL LGT RAIN  73  71  93 W5        29.95R FOG
WILMINGTON     CLOUDY    76  70  82 SW17      29.95S
$$

OHZ036-037-039>041-045>050-054>059-063>069-073>076-082>088-080000-
  CENTRAL AND SOUTHEAST OHIO

CITY           SKY/WX    TMP DP  RH WIND       PRES   REMARKS
COLUMBUS       CLOUDY    76  74  93 S5        29.93F
OSU AIRPORT    LGT RAIN  76  73  91 S6        29.93F
BOLTON FIELD   CLOUDY    75  73  94 S3        29.94F
RICKENBACK AFB NOT AVBL
NEWARK         CLOUDY    74  72  93 S7        29.94F
MARION         LGT RAIN  73  70  90 S6        29.93S
LANCASTER      CLOUDY    77  72  84 SW6       29.95S
ZANESVILLE     NOT AVBL
NEW PHILLY     RAIN      71  68  90 CALM      29.96F FOG
$$


USA.gov is the U.S. government's official web portal to all federal, state and local government web resources and services.